IU2EVW-3 Weather Reports


time (UTC)temp
C
wind
direction
speed
KPH
gust
KPH
rain 1hr
cm
rain 24hr
cm
rain mn
cm
humidity
%
barometer
mb
20260506230045 12 0.0 0.0 0.00 0.00 0.00 70 1011.8
20260506224044 12 0.0 0.0 0.00 0.00 0.00 69 1011.8
20260506222043 12 0.0 0.0 0.00 0.00 0.00 69 1011.8
20260506220041 12 0.0 0.0 0.00 0.00 0.00 69 1011.7
20260506214040 12 0.0 0.0 0.00 0.00 0.00 69 1011.7
20260506212039 12 0.0 0.0 0.00 0.00 0.00 70 1011.6
20260506210038 12 0.0 0.0 0.00 0.00 0.00 70 1011.5
20260506204037 12 0.0 0.0 0.00 0.00 0.00 71 1011.4
20260506202035 12 0.0 0.0 0.00 0.00 0.00 67 1011.3
20260506200034 13 0.0 0.0 0.00 0.00 0.00 64 1011.1
20260506194033 13 0.0 0.0 0.00 0.00 0.00 65 1010.8
20260506192032 13 0.0 0.0 0.00 0.00 0.00 67 1010.5
20260506190030 13 0.0 0.0 0.00 0.00 0.00 68 1010.2
20260506184029 13 0.0 0.0 0.00 0.00 0.00 72 1010.2
20260506182028 13 0.0 0.0 0.00 0.00 0.00 68 1009.7
20260506180027 13 0.0 0.0 0.00 0.00 0.00 67 1009.5
20260506174026 13 0.0 0.0 0.00 0.00 0.00 66 1009.2
20260506172024 13 0.0 0.0 0.00 0.00 0.00 66 1008.9
20260506170023 13 0.0 0.0 0.00 0.00 0.00 66 1008.6
20260506164022 14 0.0 0.0 0.00 0.00 0.00 66 1008.5
20260506162021 15 0.0 0.0 0.00 0.00 0.00 63 1008.1
20260506160020 15 0.0 0.0 0.00 0.00 0.00 60 1007.4
20260506154018 16 0.0 0.0 0.00 0.00 0.00 58 1007.5
20260506152017 15 0.0 0.0 0.00 0.00 0.00 62 1007.4
20260506150016 18 0.0 0.0 0.00 0.00 0.00 67 1007.0
20260506144015 19 0.0 0.0 0.00 0.00 0.00 63 1006.8
20260506142014 20 0.0 0.0 0.00 0.00 0.00 64 1006.9
20260506140012 19 0.0 0.0 0.00 0.00 0.00 64 1007.2
20260506134011 18 0.0 0.0 0.00 0.00 0.00 67 1007.6
20260506132010 18 0.0 0.0 0.00 0.00 0.00 66 1007.9
20260506130009 18 0.0 0.0 0.00 0.00 0.00 69 1008.1
20260506124007 18 0.0 0.0 0.00 0.00 0.00 67 1008.0
20260506122006 17 0.0 0.0 0.00 0.00 0.00 70 1008.2
20260506120005 18 0.0 0.0 0.00 0.00 0.00 67 1008.3
20260506114005 18 0.0 0.0 0.00 0.00 0.00 69 1008.6
20260506112003 18 0.0 0.0 0.00 0.00 0.00 68 1008.8
20260506110002 17 0.0 0.0 0.00 0.00 0.00 71 1009.0
20260506104001 17 0.0 0.0 0.00 0.00 0.00 73 1009.2
20260506102000 16 0.0 0.0 0.00 0.00 0.00 75 1009.2
20260506095958 16 0.0 0.0 0.00 0.00 0.00 75 1009.3
20260506093957 16 0.0 0.0 0.00 0.00 0.00 79 1009.1
20260506091956 15 0.0 0.0 0.00 0.00 0.00 82 1009.2
20260506085955 15 0.0 0.0 0.00 0.00 0.00 84 1009.3
20260506083953 12 0.0 0.0 0.00 0.00 0.00 95 1009.5
20260506081952 12 0.0 0.0 0.00 0.00 0.00 95 1009.9
20260506071949 13 0.0 0.0 0.00 0.00 0.00 90 1009.4
20260506062011 12 0.0 0.0 0.00 0.00 0.00 96 1010.0
20260506043939 12 0.0 0.0 0.00 0.00 0.00 99 1010.4
20260506041938 12 0.0 0.0 0.00 0.00 0.00 99 1010.7
20260506035937 12 0.0 0.0 0.00 0.00 0.00 99 1010.7
20260506033935 12 0.0 0.0 0.00 0.00 0.00 99 1010.8
20260506031934 12 0.0 0.0 0.00 0.00 0.00 98 1010.7
20260506025933 12 0.0 0.0 0.00 0.00 0.00 97 1010.8
20260506023932 12 0.0 0.0 0.00 0.00 0.00 97 1011.5
20260506021931 12 0.0 0.0 0.00 0.00 0.00 97 1011.6
20260506015929 12 0.0 0.0 0.00 0.00 0.00 97 1011.8
20260506013928 12 0.0 0.0 0.00 0.00 0.00 96 1011.7
20260506011927 12 0.0 0.0 0.00 0.00 0.00 96 1011.8
20260506005926 12 0.0 0.0 0.00 0.00 0.00 95 1011.7
20260506003924 12 0.0 0.0 0.00 0.00 0.00 94 1012.1
20260506001923 12 0.0 0.0 0.00 0.00 0.00 95 1012.4
20260505235922 12 0.0 0.0 0.00 0.00 0.00 95 1012.6
20260505233921 12 0.0 0.0 0.00 0.00 0.00 94 1012.7
20260505231920 12 0.0 0.0 0.00 0.00 0.00 94 1012.9